www.pogodaiklimat.ru
ПОГОДА в Монтиселло
Время
и дата
17:32 26.10
17:56 26.10
18:08 26.10
18:18 26.10
18:27 26.10
18:36 26.10
18:56 26.10
19:08 26.10
19:31 26.10
19:51 26.10
19:56 26.10
20:56 26.10
21:56 26.10
22:56 26.10
23:09 26.10
23:48 26.10
23:56 26.10
00:06 27.10
00:27 27.10
00:32 27.10
00:53 27.10
00:56 27.10
01:34 27.10
01:56 27.10
02:48 27.10
02:56 27.10
03:56 27.10
04:04 27.10
04:56 27.10
05:43 27.10
05:52 27.10
05:56 27.10
06:33 27.10
06:56 27.10
07:56 27.10
08:28 27.10
08:56 27.10
09:28 27.10
09:53 27.10
09:56 27.10
10:56 27.10
11:08 27.10
11:22 27.10
11:29 27.10
11:41 27.10
11:53 27.10
11:56 27.10
12:26 27.10
Ветер
(напр.,м/с)
Видим. Явления Облачность Т
(С)
Тd
(С)
f
(%)
Тe
(С)
Тes
(С)
Комфортность P
(гПа)
Po
(гПа)
Тmin
(С)
Tmax
(С)
R
(мм)
R24
(мм)
S
(см)
В 1 800 м слабый дождь, туман 10/10 90 м +9.0 +9.0 100 +7 +7 968.8
штиль 0 800 м слабый дождь, туман 10/10 90 м +8.9 +8.9 100 +8 +8 1020.5 969.1
штиль 0 2 км дождь, дымка 10/10 90 м +9.0 +9.0 100 +8 +8 969.1
штиль 0 3 км слабый дождь, дымка 10/10 90 м +9.0 +9.0 100 +8 +8 968.8
штиль 0 2 км слабый дождь, дымка 10/10 90 м +9.0 +9.0 100 +8 +8 968.8
штиль 0 800 м туман 10/10 90 м +9.0 +9.0 100 +8 +8 968.8
штиль 0 800 м слабый дождь, туман 10/10 90 м +8.9 +8.9 100 +8 +8 1020.1 968.5 +7.8 +9.4 1.0
штиль 0 400 м туман 10/10 90 м +9.0 +9.0 100 +8 +8 968.8
штиль 0 800 м туман 10/10 90 м +9.0 +9.0 100 +8 +8 968.8
штиль 0 400 м туман 10/10 90 м +9.0 +9.0 100 +8 +8 968.8
штиль 0 400 м туман 10/10 90 м +8.9 +8.9 100 +8 +8 1020.2 968.8
штиль 0 400 м туман 10/10 90 м +8.9 +8.9 100 +8 +8 1019.9 968.5
штиль 0 400 м слабый дождь, туман 10/10 90 м +8.9 +8.9 100 +8 +8 1020.2 968.8
З 1 400 м туман 10/10 90 м +9.4 +9.4 100 +8 +8 1019.8 968.5
штиль 0 800 м туман 10/10 90 м +9.0 +9.0 100 +8 +8 968.2
штиль 0 400 м туман 10/10 90 м +9.0 +9.0 100 +8 +8 968.2
З 1 400 м туман 10/10 90 м +9.4 +9.4 100 +8 +8 1019.5 968.2
З 1 800 м туман 10/10 90 м +9.0 +9.0 100 +7 +7 968.5
З 1 2 км дымка 10/10 90 м +10.0 +10.0 100 +8 +8 968.5
З 1 3 км дымка 10/10 90 м +10.0 +10.0 100 +8 +8 968.5
З 2 5 км дымка 10/10 90 м +10.0 +10.0 100 +7 +7 968.5
З 1 6 км дымка 10/10 90 м +10.0 +10.0 100 +8 +8 1019.8 968.5 +8.9 +10.0 0.3
СЗ 2 16 км 10/10 90 м +9.0 +9.0 100 +6 +6 968.8
СЗ 2 16 км 10/10 270 м +8.9 +8.3 96 +5 +5 1020.7 969.5
СЗ 2 16 км слабый дождь 10/10 330 м +8.0 +7.0 93 +4 +4 969.5
СЗ 2 16 км слабый дождь 10/10 330 м +7.8 +6.7 93 +4 +4 1020.9 969.5
СЗ 1 16 км 8/8 840 м +6.7 +6.1 96 +3 +3 1021.1 969.5
СЗ 1 16 км 8/8 900 м +7.0 +6.0 93 +4 +4 969.8
СЗ 2 16 км 8/8 360 м
[Ac]
+6.1 +5.6 97 +2 +2 1021.9 970.4
СЗ 2 16 км 8/8 450 м +6.0 +5.0 93 +2 +2 971.4
С 2 16 км 10/10 390 м +6.0 +5.0 93 +2 +2 971.1
С 2 16 км 10/10 390 м +6.1 +5.0 93 +2 +2 1022.5 970.7
С 2 16 км 10/5 390 м
[Ac]
+6.0 +4.0 87 +2 +2 971.1
СЗ 1 16 км 10/0 3000 м
[Ac]
+5.6 +4.4 92 +2 +2 1023.1 971.4 +5.6 +10.0 1.8
С 1 16 км 10/8 480 м
[Ac]
+5.6 +3.9 89 +3 +3 1023.2 971.4
З 1 16 км 10/2 420 м
[Ac]
+6.0 +4.0 87 +3 +3 972.4
З 1 16 км 10/8 420 м
[Ac]
+6.7 +4.4 85 +4 +5 1023.6 972.0
СЗ 1 16 км 10/8 480 м
[Ac]
+7.0 +4.0 81 +5 +5 971.7
СЗ 2 16 км 10/5 480 м
[Ac]
+8.0 +4.0 76 +5 +5 972.0
СЗ 1 16 км 10/5 480 м
[Ac]
+7.8 +3.9 76 +5 +6 1023.5 972.0
СЗ 2 16 км 8/8 630 м
[Ac]
+8.9 +4.4 73 +6 +7 1023.3 971.7
СЗ 2 16 км 10/5 630 м
[Ac]
+9.0 +4.0 71 +6 +7 971.4
З 2 16 км 10/8 690 м
[Ac]
+10.0 +4.0 66 +8 +8 971.7
СЗ 2 16 км 10/5 750 м
[Ac]
+9.0 +4.0 71 +6 +7 971.7
С 2 16 км 10/8 750 м
[Ac]
+9.0 +4.0 71 +6 +7 971.1
З 1 16 км 8/5 750 м
[Ac]
+9.0 +4.0 71 +7 +9 971.1
З 1 16 км 8/8 750 м
[Ac]
+9.4 +3.3 66 +7 +8 1022.5 971.1
З 2 16 км 5/5 750 м +10.0 +3.0 62 +8 +10 970.7
Местоположение метеостанции Sullivan County International Airport: широта 41.7000 долгота -74.8000 высота над уровнем моря 428 м.
В архиве по умолчанию представлена погода в Монтиселло за последние 1-2 суток. Обновление информации о фактической погоде в базе происходит ежечасно! Архивные данные за месяц целиком и за предыдущие месяцы Вы можете получить, выбрав интересующий диапазон дат из раскрывающегося списка и нажав кнопку "Ввод!".
Внимание! Архив погоды МЕТАР в базе сайта по станциям, не включенным в климатический монитор, хранится не более 60 дней. Нет смысла пытаться выбрать более раннюю дату.
*Определитесь, кто Вы:
Внимание! Время в таблицах - местное (без учета летнего времени). Для получения всемирного времени необходимо вычесть поправку, которая равна -5 ч.
Смотрите также архив погоды в соседних городах и на ближайших метеорологических станциях:
Партнеры нашего сайта:      
Пояснения к столбцам:
  • Ветер - указаны скорость ветра в м/с - средняя за 10 мин, порывы в срок и между сроками (в фигурных скобках) и направление, откуда дует ветер: С - северный,
  • СВ - северо-восточный, В - восточный, ЮВ - юго-восточный, Ю - южный, ЮЗ - юго-западный, З - западный, СЗ - северо-западный.
  • Видимость - горизонтальная дальность видимости в метрах или километрах. При видимости от 1 до 10 км при отсутствии осадков обычно наблюдается дымка, при ухудшении видимости до 1 км и менее - туман. В сухую погоду видимость может ухудшаться дымом, пылью или мглою.
  • Явления - указаны атмосферные явления, наблюдавшиеся в срок или в последний час перед сроком; фигурными скобками обозначены явления, наблюдавшиеся между сроками (за 1-3 часа до срока); квадратными скобками обозначены град или гололедные отложения с указанием их диаметра в мм.
  • Облачность - указаны через наклонную черту общая и нижняя облачность в баллах и высота нижней границы облаков в метрах; квадратными скобками обозначены формы облаков: Ci - перистые, Cs - перисто-слоистые, Cc - перисто-кучевые, Ac - высококучевые, As - высокослоистые, Sc - слоисто-кучевые, Ns - слоисто-дождевые, Cu - кучевые, Cb - кучево-дождевые. Подробнее классификацию облаков см. в Атласе облаков (PDF).
  • T - Температура воздуха - температура, измеренная на высоте 2 м над землей.
  • Td - Температура точки росы - температура, при понижении до которой содержащийся в воздухе водяной пар достигнет насыщения.
  • f - Относительная влажность воздуха - влажноcть воздуха, измеренная на высоте 2 м над землей.
  • Te - Эффективная температура - температура, которую ощущает одетый по сезону человек в тени. Характеристика душности погоды. При расчете учитывается влияние влажности воздуха и скорости ветра на теплоощущения человека.
  • Tes - Эффективная температура на солнце - температура, которую ощущает человек, с поправкой на солнечный нагрев. Характеристика знойности погоды. Зависит от высоты солнца над горизонтом, облачности и скорости ветра. Ночью, в пасмурную погоду, а также при ветре 12 м/с и более поправка равна нулю.
  • P - Атмосферное давление - приведенное к уровню моря атмосферное давление.
  • Po - Атмосферное давление - измеренное на уровне метеостанции атмосферное давление.
  • Tmin - Минимальная температура - минимум температуры воздуха на высоте 2 м над землей.
  • Tmax - Максимальная температура - максимум температуры воздуха на высоте 2 м над землей.
  • R - Количество осадков - Количество выпавших осадков за период времени, мм. При наведении курсора мыши на число - период времени, за который выпало указанное количество осадков.
  • R24 - Количество осадков - Количество выпавших осадков за 24 часа, мм.
  • S - Снежный покров - Высота снежного покрова, см. При наведении курсора мыши на число - состояние снежного покрова и степень покрытия местности в баллах.